Lid_Strength_Index
7 9 10 9 8 9 9 10 10 9 7 8 9 10 8 6 6 6 6 6 5 4 3 3 2 2 2 1 1 1 2 1 1 1 2 2 2 1 0 -0 -0 -0 0 0
10 11 7 7 7 8 9 10 10 9 8 8 8 10 8 6 6 6 6 6 5 4 4 3 3 2 2 2 2 2 1 1 1 1 1 1 1 1 0 -0 -0 0 0 0
11 8 6 7 8 9 10 10 9 10 8 7 8 11 9 7 7 6 6 5 5 5 4 4 3 3 2 2 2 2 1 1 1 1 1 2 2 1 1 1 1 0 0 0
9 7 7 9 9 8 10 7 7 8 10 12 9 14 11 10 9 7 6 6 5 4 4 4 3 3 3 2 2 1 1 1 1 1 1 2 2 3 2 1 1 1 0 0
10 9 9 10 9 8 10 7 8 8 11 12 10 13 13 10 11 9 7 6 5 4 4 4 3 3 2 2 2 2 1 1 1 1 1 1 2 2 1 1 1 1 0 0
8 6 8 9 7 8 8 9 10 10 12 15 11 12 14 12 11 9 7 6 5 4 4 3 3 2 2 2 2 2 2 2 1 1 1 2 2 2 2 2 2 1 1 0
9 8 7 7 10 8 9 13 15 15 15 15 11 13 11 9 8 7 7 6 6 4 4 4 4 3 3 3 2 2 2 2 1 1 1 1 1 1 2 2 2 2 2 1
13 12 9 7 9 10 11 11 15 17 16 14 12 14 11 7 6 6 5 5 5 5 4 4 4 3 3 3 2 2 2 2 2 2 1 1 1 1 1 1 1 1 1 1
12 11 6 7 7 8 11 12 11 15 15 15 14 11 9 7 7 6 6 6 5 5 4 4 3 3 3 3 2 2 2 2 2 2 1 1 1 1 1 1 1 1 1 1
9 12 9 7 7 8 9 8 13 14 16 17 14 13 12 10 8 7 6 6 6 5 4 4 3 3 3 2 2 2 2 2 2 2 1 1 1 1 1 1 1 1 1 1
9 11 10 8 10 11 11 12 12 13 14 16 17 14 7 9 8 7 6 5 5 5 4 4 4 3 3 2 2 2 2 2 2 2 1 1 1 1 1 1 1 1 1 1
8 10 13 11 8 7 9 10 12 15 14 14 15 14 9 7 7 6 6 5 5 4 4 4 3 3 3 3 3 3 2 2 2 1 1 2 1 1 1 1 1 0 1 1
8 11 14 13 11 8 10 9 10 11 12 15 15 13 7 6 6 6 6 5 5 5 5 4 4 4 3 3 3 3 2 2 2 2 2 2 2 2 1 1 1 1 1 1
6 11 12 14 12 10 11 9 9 11 14 13 13 11 9 7 7 6 6 6 5 5 5 5 4 4 3 3 3 3 3 2 2 2 2 2 2 2 1 1 2 2 2 3
8 12 11 9 9 9 9 9 9 11 11 13 11 11 9 9 8 6 6 6 6 6 5 5 5 4 4 3 3 3 2 2 2 2 2 2 2 1 1 2 2 2 2 3
8 11 10 11 9 9 9 9 9 9 9 10 10 10 8 6 7 8 7 6 6 6 5 5 5 4 4 3 3 3 3 2 2 2 2 2 2 2 2 3 3 3 3 3
11 12 12 13 9 9 12 9 9 9 8 9 11 11 8 9 9 8 7 8 9 6 5 5 5 4 4 3 3 3 3 2 2 2 2 2 2 2 3 3 4 4 4 4
11 12 11 13 11 15 10 8 7 8 8 8 9 8 8 8 7 7 7 7 7 8 5 5 4 4 5 3 3 2 2 2 2 2 2 2 2 3 3 4 4 4 5 5
9 12 13 14 14 11 9 8 7 9 10 8 9 8 7 7 7 8 5 5 5 5 4 4 4 3 3 3 3 3 3 3 3 3 3 2 3 3 4 4 5 5 6 6
8 10 12 13 14 15 10 6 6 6 12 7 7 8 8 7 11 9 6 4 4 4 4 4 3 3 3 3 2 3 3 3 3 3 2 2 3 4 4 4 5 5 6 6
11 11 12 12 14 12 8 6 6 13 13 7 7 7 7 9 8 6 4 4 4 4 4 3 3 4 3 3 3 3 3 4 3 2 3 3 4 4 5 4 5 6 6 6
12 13 13 12 15 15 6 7 11 9 7 6 6 6 6 6 5 5 4 4 4 4 4 3 4 4 3 3 4 4 4 3 2 3 4 4 4 4 5 6 6 5 6 6
12 10 12 11 11 7 6 7 6 6 6 6 6 6 5 6 6 5 5 5 4 4 4 4 4 4 3 3 3 4 4 4 4 4 3 4 4 4 5 6 7 6 6 5
8 7 10 10 8 7 6 5 6 5 6 6 6 6 5 7 7 7 5 4 4 4 4 4 4 4 4 3 3 3 4 4 3 4 4 4 5 5 5 6 7 7 6 6
8 8 9 9 7 7 6 5 5 5 4 5 5 6 6 5 6 6 6 6 4 4 4 4 4 4 4 4 3 3 3 3 4 4 4 5 5 6 6 6 7 7 5 5
8 9 10 10 7 7 7 6 6 6 5 5 5 6 6 6 7 6 5 5 4 4 4 4 4 4 3 3 3 2 2 2 3 4 5 6 6 6 6 7 7 8 6 7